Location: Shenandoah County Park
(38.9356°N, 78.4524°W)
Time: 14:58:49
(UTC-05:00)

Vanguard 2 Rocket - Pass Details

Date: 02 December 2023
Orbit: 555 x 3309 km, 32.9° (Epoch: 03 March)

Event Time Altitude Azimuth Distance (km) Brightness Sun altitude
Rises 17:39:06 0° 262° (W) 7,066 13.3 -9.2°
Reaches altitude 10° 17:43:40 10° 261° (W) 6,181 12.6 -10.0°
Maximum altitude 18:03:57 72° 183° (S) 3,196 9.6 -13.8°
Enters shadow 18:18:38 13° 103° (ESE) 4,737 10.0 -16.5°
Drops below altitude 10° 18:19:30 10° 102° (ESE) 4,919 - -16.7°
Sets 18:22:40 0° 101° (E) 5,622 - -17.2°
